Orbital Elements at Epoch 2459200.5 (2020-Dec-17.0) TDB
Reference: JPL 32 (heliocentric ecliptic J2000)
Element | Value | Uncertainty (1-sigma) | Units |
e | .1782532944164998 | 1.2461e-08 | |
a | 2.665130781657889 | 1.0192e-08 | au |
q | 2.190062439776549 | 3.3903e-08 | au |
i | 13.11653630395316 | 9.5277e-07 | deg |
node | 84.17126649940322 | 4.3381e-06 | deg |
peri | 336.5306726716323 | 9.1079e-06 | deg |
M | 77.54107194549803 | 5.6823e-06 | deg |
tp | 2458858.201091274271 (2020-Jan-09.70109127) | 2.4793e-05 | TDB |
period | 1589.191431708301 4.35 | 9.1161e-06 2.496e-08 | d yr |
n | .2265302925859713 | 1.2995e-09 | deg/d |
Q | 3.140199123539229 | 1.2009e-08 | au |
|
| | Orbit Determination Parameters
Additional Information
|